THORAD AGENA D DEB, 19948

Orbit data source: Space-Track

THORAD AGENA D DEB, 19948 is space debris in SSO originally from a launch on Wed, 08 Apr 1970 UTC launched from the Air Force Western Test Range (AFWTR). Debris objects in space refer to the collection of defunct objects orbiting the Earth. Examples of debris include non-operational satellites, rocket bodies, and fragments generated from explosions, collisions, or faulty payload assembly.

Loading next visibility...
Identifier
19948, 1970-025QD
Orbit
SSO
Country
Flag of USUS
Related business
Manufacturer
Unknown
Mission
Spacecraft
Bus & Motor
Unknown
Mass
Unknown
Launch date (UTC)
1970-04-08 (56 years ago)
Launch vehicle
Unknown
Launch site
Air Force Western Test Range (AFWTR)
Object type
Payload
Rocket body
Debris
Shape & HBR
Unknown shape, 0.1 m
Radar Cross Section
Small (<0.1 m²)

Expand to show TLE details & history
Last TLE update: 4 days ago

TLE from 4 days ago
0 THORAD AGENA D DEB
1 19948U 70025QD  25284.15293397  .00000025  00000-0  20592-3 0  9993
2 19948  99.5971 155.4814 0411514 237.9157 283.5934 12.74788921607782
Epoch: 2025-10-11T03:40Z
TLE epoch observation values (Epoch: 2025-10-11T03:40:13.495Z)
Latitude
22.80086°
Longitude
-95.50778°
Altitude
1,302.742 km
Speed
7.236 km/s
True Right ascension
22h 38m 08s
True Declination
22° 41' 13"
Sunlit
Object was in full shadow at epoch
Visualization orbit readout
Latitude
Unknown
Longitude
Unknown
Altitude
Unknown
Speed
Unknown
Apparent Right ascension
Unknown
Apparent Declination
Unknown
Sunlit
N/A
Visualization observer readout
Local Sidereal Time
12:57:01
Azimuth
Unknown
Elevation
Unknown
Doppler factor
Unknown
Orbital elements
Apogee altitude
1,678.315 km
Perigee altitude
1,041.454 km
Semi-major axis
7,738.021 km
Eccentricity
0.04115
Inclination
99.5971°
RAAN
155.4814°
Arg. of periapsis
237.9157°
True anomaly
278.95889°
Mean anomaly
283.5934°
Eccentric anomaly
281.28115°
Mean motion
3.18859 °/min
Orbital period
112.9 mins
BSTAR
0.00020592

Documentation

Showing up to 5 results
|